Weather History for KMAE - February, 2014

Change the Weather History Date:

Tuesday, February 4, 2014

  Actual Average Record
Temperature  
Mean Temperature 45 °F 48 °F  
Max Temperature 57 °F 58 °F 76 °F (2015)
Min Temperature 32 °F 39 °F 29 °F (2003)
Degree Days  
Heating Degree Days 20    
Month to date heating degree days 81  
Since 1 July heating degree days 1596  
Cooling Degree Days 0    
Month to date cooling degree days 0  
Year to date cooling degree days 0  
Moisture  
Dew Point 35 °F    
Average Humidity 68    
Maximum Humidity 92    
Minimum Humidity 43    
Precipitation  
Precipitation 0.00 in 0.06 in 0.03 in (2010)
Month to date precipitation 0.01 0.22  
Year to date precipitation 0.35 2.67  
Since 1 July precipitation 1.32  
Snow  
Snow 0.00 in - - ()
Month to date snowfall 0.0  
Since 1 July snowfall 0.0  
Snow Depth 0.00 in    
Sea Level Pressure  
Sea Level Pressure 30.11 in    
Wind  
Wind Speed 4 mph (NW)    
Max Wind Speed 12 mph    
Max Gust Speed 16 mph    
Visibility 10 miles    
Events      
T = Trace of Precipitation, MM = Missing Value Source: NWS Daily Summary

Daily Weather History Graph

Daily Weather History Graph

Search for Another Location

Airport or City:

Trip Planner

Search our weather history database for the weather conditions in past years. The results will help you decide how hot, cold, wet, or windy it might be!

Date:

Astronomy

Feb. 04, 2014 Rise Set
Actual Time 7:00 AM PST 5:29 PM PST
Civil Twilight 6:33 AM PST 5:56 PM PST
Nautical Twilight 6:02 AM PST 6:27 PM PST
Astronomical Twilight 5:31 AM PST 6:57 PM PST
Moon 9:50 AM PST (2/4) 11:18 PM PST (2/4)
Length of Visible Light 11h 23m
Length of Day
10h 28m
Waxing Crescent, 30% of the Moon is Illuminated
Feb 4
Waxing Crescent
Feb 6
First Quarter
Feb 14
Full
Feb 22
Last Quarter
Mar 1
New

Hourly Weather History & Observations

Time (PST) Temp. Windchill Dew Point Humidity Pressure Visibility Wind Dir Wind Speed Gust Speed Precip Events Conditions
12:53 AM 36.0 °F 32.1 °F 32.0 °F 86% 30.07 in 10.0 mi West 4.6 mph - N/A   Clear
1:53 AM 36.0 °F 33.3 °F 33.1 °F 89% 30.08 in 10.0 mi WNW 3.5 mph - N/A   Clear
2:53 AM 36.0 °F 31.1 °F 32.0 °F 86% 30.09 in 10.0 mi NW 5.8 mph - N/A   Clear
3:53 AM 36.0 °F 32.1 °F 33.1 °F 89% 30.09 in 10.0 mi North 4.6 mph - N/A   Clear
4:53 AM 37.0 °F 33.3 °F 33.1 °F 86% 30.09 in 10.0 mi North 4.6 mph - N/A   Clear
5:53 AM 35.1 °F 32.2 °F 33.1 °F 92% 30.09 in 10.0 mi NNE 3.5 mph - N/A   Clear
6:53 AM 33.1 °F - 30.0 °F 89% 30.11 in 9.0 mi Calm Calm - N/A   Clear
7:53 AM 36.0 °F - 33.1 °F 89% 30.12 in 10.0 mi Calm Calm - N/A   Clear
8:53 AM 41.0 °F - 37.0 °F 86% 30.14 in 10.0 mi Calm Calm - N/A   Clear
9:53 AM 46.9 °F - 37.9 °F 71% 30.15 in 10.0 mi NNW 3.5 mph - N/A   Clear
10:53 AM 50.0 °F - 39.0 °F 66% 30.16 in 10.0 mi WNW 4.6 mph - N/A   Clear
11:53 AM 53.1 °F - 37.9 °F 57% 30.14 in 10.0 mi NW 5.8 mph - N/A   Clear
12:53 PM 54.0 °F - 36.0 °F 51% 30.11 in 10.0 mi WNW 8.1 mph - N/A   Clear
1:53 PM 55.0 °F - 35.1 °F 47% 30.09 in 10.0 mi WNW 5.8 mph - N/A   Clear
2:53 PM 55.9 °F - 34.0 °F 44% 30.07 in 10.0 mi WNW 6.9 mph - N/A   Clear
3:53 PM 55.0 °F - 34.0 °F 45% 30.07 in 10.0 mi West 6.9 mph - N/A   Clear
4:53 PM 55.0 °F - 34.0 °F 45% 30.07 in 10.0 mi West 5.8 mph - N/A   Clear
5:53 PM 50.0 °F - 34.0 °F 54% 30.08 in 10.0 mi West 5.8 mph - N/A   Clear
6:53 PM 46.9 °F - 35.1 °F 63% 30.10 in 10.0 mi WNW 3.5 mph - N/A   Clear
7:53 PM 46.9 °F - 36.0 °F 66% 30.12 in 10.0 mi Calm Calm - N/A   Clear
8:53 PM 45.0 °F 43.5 °F 36.0 °F 71% 30.13 in 10.0 mi NNW 3.5 mph - N/A   Clear
9:53 PM 45.0 °F 43.5 °F 37.0 °F 74% 30.14 in 10.0 mi NNW 3.5 mph - N/A   Mostly Cloudy
10:53 PM 42.1 °F 39.2 °F 37.0 °F 82% 30.15 in 10.0 mi West 4.6 mph - N/A   Scattered Clouds
11:53 PM 44.1 °F 41.5 °F 37.0 °F 76% 30.16 in 9.0 mi NNW 4.6 mph - N/A   Clear